Time,TemperatureF,DewpointF,PressureIn,WindDirection,WindDirectionDegrees,WindSpeedMPH,WindSpeedGustMPH,Humidity,HourlyPrecipIn,Conditions,Clouds,dailyrainin,SoftwareType,DateUTC
2013-03-24 00:00:00,70.0,46.4,29.95,SSE,157,7.0,11.0,43,0.00,,,0.00,Weather View 32 v70,2013-03-24 04:00:00,
2013-03-24 00:05:00,70.0,46.4,29.94,SSE,157,7.0,10.0,43,0.00,,,0.00,Weather View 32 v70,2013-03-24 04:05:00,
2013-03-24 00:10:00,70.0,46.4,29.94,SSE,157,2.0,10.0,43,0.00,,,0.00,Weather View 32 v70,2013-03-24 04:10:00,
2013-03-24 00:15:00,70.0,46.4,29.94,SSE,157,7.0,10.0,43,0.00,,,0.00,Weather View 32 v70,2013-03-24 04:15:00,
2013-03-24 00:20:00,70.0,46.4,29.94,South,180,2.0,10.0,43,0.00,,,0.00,Weather View 32 v70,2013-03-24 04:20:00,
2013-03-24 00:25:00,70.0,46.4,29.94,SSE,157,3.0,10.0,43,0.00,,,0.00,Weather View 32 v70,2013-03-24 04:25:00,
2013-03-24 00:30:00,70.0,46.4,29.93,SSE,157,7.0,10.0,43,0.00,,,0.00,Weather View 32 v70,2013-03-24 04:30:00,
2013-03-24 00:35:00,70.0,46.4,29.93,SSE,157,6.0,10.0,43,0.00,,,0.00,Weather View 32 v70,2013-03-24 04:35:00,
2013-03-24 00:40:00,70.0,46.4,29.93,SSE,157,6.0,10.0,43,0.00,,,0.00,Weather View 32 v70,2013-03-24 04:40:00,
2013-03-24 00:45:00,70.0,46.4,29.93,SSE,157,6.0,10.0,43,0.00,,,0.00,Weather View 32 v70,2013-03-24 04:45:00,
2013-03-24 00:50:00,70.0,46.4,29.93,SSE,157,6.0,10.0,43,0.00,,,0.00,Weather View 32 v70,2013-03-24 04:50:00,
2013-03-24 00:55:00,71.0,47.3,29.93,SSE,157,7.0,10.0,43,0.00,,,0.00,Weather View 32 v70,2013-03-24 04:55:00,
2013-03-24 01:00:00,71.0,47.9,29.92,SSE,157,4.0,10.0,44,0.00,,,0.00,Weather View 32 v70,2013-03-24 05:00:00,
2013-03-24 01:10:00,71.0,48.5,29.92,SSE,157,7.0,10.0,45,0.00,,,0.00,Weather View 32 v70,2013-03-24 05:10:00,
2013-03-24 01:15:00,71.0,48.5,29.92,SSE,157,10.0,10.0,45,0.00,,,0.00,Weather View 32 v70,2013-03-24 05:15:00,
2013-03-24 01:20:00,71.0,48.5,29.92,South,180,5.0,10.0,45,0.00,,,0.00,Weather View 32 v70,2013-03-24 05:20:00,
2013-03-24 01:30:00,71.0,49.1,29.92,SSE,157,2.0,12.0,46,0.00,,,0.00,Weather View 32 v70,2013-03-24 05:30:00,
2013-03-24 01:35:00,71.0,49.1,29.91,SSE,157,2.0,12.0,46,0.00,,,0.00,Weather View 32 v70,2013-03-24 05:35:00,
2013-03-24 01:40:00,71.0,49.1,29.91,SSE,157,4.0,12.0,46,0.00,,,0.00,Weather View 32 v70,2013-03-24 05:40:00,
2013-03-24 01:45:00,71.0,49.7,29.91,East,90,9.0,12.0,47,0.00,,,0.00,Weather View 32 v70,2013-03-24 05:45:00,
2013-03-24 01:50:00,70.0,48.8,29.90,SSE,157,4.0,12.0,47,0.00,,,0.00,Weather View 32 v70,2013-03-24 05:50:00,
2013-03-24 01:55:00,70.0,48.8,29.90,SSE,157,1.0,12.0,47,0.00,,,0.00,Weather View 32 v70,2013-03-24 05:55:00,
2013-03-24 02:00:00,70.0,48.8,29.90,SSE,157,4.0,12.0,47,0.00,,,0.00,Weather View 32 v70,2013-03-24 06:00:00,
2013-03-24 02:05:00,70.0,48.8,29.90,SSE,157,3.0,12.0,47,0.00,,,0.00,Weather View 32 v70,2013-03-24 06:05:00,
2013-03-24 02:10:00,70.0,48.2,29.89,East,90,6.0,12.0,46,0.00,,,0.00,Weather View 32 v70,2013-03-24 06:10:00,
2013-03-24 02:20:00,70.0,48.2,29.88,SSE,157,10.0,12.0,46,0.00,,,0.00,Weather View 32 v70,2013-03-24 06:20:00,
2013-03-24 02:25:00,70.0,48.2,29.88,SSE,157,5.0,12.0,46,0.00,,,0.00,Weather View 32 v70,2013-03-24 06:25:00,
2013-03-24 02:30:00,70.0,48.2,29.88,SSE,157,5.0,10.0,46,0.00,,,0.00,Weather View 32 v70,2013-03-24 06:30:00,
2013-03-24 02:35:00,70.0,48.2,29.88,SSE,157,3.0,10.0,46,0.00,,,0.00,Weather View 32 v70,2013-03-24 06:35:00,
2013-03-24 02:45:00,70.0,47.6,29.87,SSE,157,2.0,10.0,45,0.00,,,0.00,Weather View 32 v70,2013-03-24 06:45:00,
2013-03-24 02:50:00,70.0,47.6,29.86,SSE,157,2.0,10.0,45,0.00,,,0.00,Weather View 32 v70,2013-03-24 06:50:00,
2013-03-24 02:55:00,70.0,47.6,29.86,SSE,157,7.0,10.0,45,0.00,,,0.00,Weather View 32 v70,2013-03-24 06:55:00,
2013-03-24 03:00:00,70.0,47.6,29.86,SSE,157,2.0,11.0,45,0.00,,,0.00,Weather View 32 v70,2013-03-24 07:00:00,
2013-03-24 03:05:00,70.0,48.2,29.86,SSE,157,7.0,11.0,46,0.00,,,0.00,Weather View 32 v70,2013-03-24 07:05:00,
2013-03-24 03:10:00,70.0,48.2,29.85,SSE,157,6.0,13.0,46,0.00,,,0.00,Weather View 32 v70,2013-03-24 07:10:00,
2013-03-24 03:15:00,70.0,48.2,29.85,SSE,157,8.0,13.0,46,0.00,,,0.00,Weather View 32 v70,2013-03-24 07:15:00,
2013-03-24 03:20:00,70.0,48.8,29.85,SSE,157,6.0,13.0,47,0.00,,,0.00,Weather View 32 v70,2013-03-24 07:20:00,
2013-03-24 03:25:00,70.0,48.8,29.85,ENE,67,1.0,13.0,47,0.00,,,0.00,Weather View 32 v70,2013-03-24 07:25:00,
2013-03-24 03:33:00,70.0,48.8,29.84,SSE,157,7.0,13.0,47,0.00,,,0.00,Weather View 32 v70,2013-03-24 07:33:00,
2013-03-24 03:40:00,70.0,48.2,29.84,SSE,157,0.0,13.0,46,0.00,,,0.00,Weather View 32 v70,2013-03-24 07:40:00,
2013-03-24 03:45:00,70.0,48.2,29.84,SSE,157,6.0,13.0,46,0.00,,,0.00,Weather View 32 v70,2013-03-24 07:45:00,
2013-03-24 03:50:00,70.0,48.2,29.85,SSE,157,6.0,13.0,46,0.00,,,0.00,Weather View 32 v70,2013-03-24 07:50:00,
2013-03-24 03:55:00,70.0,48.2,29.85,SSE,157,5.0,13.0,46,0.00,,,0.00,Weather View 32 v70,2013-03-24 07:55:00,
2013-03-24 04:00:00,70.0,48.2,29.85,SSE,157,4.0,13.0,46,0.00,,,0.00,Weather View 32 v70,2013-03-24 08:00:00,
2013-03-24 04:10:00,70.0,48.2,29.84,SSE,157,4.0,12.0,46,0.00,,,0.00,Weather View 32 v70,2013-03-24 08:10:00,
2013-03-24 04:15:00,70.0,48.2,29.84,South,180,1.0,12.0,46,0.00,,,0.00,Weather View 32 v70,2013-03-24 08:15:00,
2013-03-24 04:20:00,70.0,48.8,29.84,SSE,157,6.0,12.0,47,0.00,,,0.00,Weather View 32 v70,2013-03-24 08:20:00,
2013-03-24 04:25:00,70.0,49.4,29.84,SSE,157,2.0,12.0,48,0.00,,,0.00,Weather View 32 v70,2013-03-24 08:25:00,
2013-03-24 04:30:00,70.0,49.4,29.84,SSE,157,6.0,12.0,48,0.00,,,0.00,Weather View 32 v70,2013-03-24 08:30:00,
2013-03-24 04:35:00,70.0,49.4,29.84,SSE,157,3.0,12.0,48,0.00,,,0.00,Weather View 32 v70,2013-03-24 08:35:00,
2013-03-24 04:40:00,70.0,49.4,29.84,SSE,157,3.0,12.0,48,0.00,,,0.00,Weather View 32 v70,2013-03-24 08:40:00,
2013-03-24 04:45:00,70.0,49.9,29.84,SSE,157,7.0,12.0,49,0.00,,,0.00,Weather View 32 v70,2013-03-24 08:45:00,
2013-03-24 04:50:00,70.0,49.9,29.84,SSE,157,3.0,12.0,49,0.00,,,0.00,Weather View 32 v70,2013-03-24 08:50:00,
2013-03-24 04:55:00,70.0,49.9,29.84,SSE,157,2.0,12.0,49,0.00,,,0.00,Weather View 32 v70,2013-03-24 08:55:00,
2013-03-24 05:00:00,70.0,49.9,29.84,SSE,157,2.0,12.0,49,0.00,,,0.00,Weather View 32 v70,2013-03-24 09:00:00,
2013-03-24 05:05:00,70.0,49.9,29.84,SSE,157,0.0,12.0,49,0.00,,,0.00,Weather View 32 v70,2013-03-24 09:05:00,
2013-03-24 05:10:00,70.0,49.9,29.84,East,90,2.0,12.0,49,0.00,,,0.00,Weather View 32 v70,2013-03-24 09:10:00,
2013-03-24 05:15:00,70.0,49.9,29.83,SSE,157,3.0,12.0,49,0.00,,,0.00,Weather View 32 v70,2013-03-24 09:15:00,
2013-03-24 05:20:00,70.0,49.9,29.83,East,90,3.0,12.0,49,0.00,,,0.00,Weather View 32 v70,2013-03-24 09:20:00,
2013-03-24 05:25:00,70.0,49.9,29.83,SSE,157,4.0,12.0,49,0.00,,,0.00,Weather View 32 v70,2013-03-24 09:25:00,
2013-03-24 05:35:00,70.0,49.4,29.83,SSE,157,4.0,12.0,48,0.00,,,0.00,Weather View 32 v70,2013-03-24 09:35:00,
2013-03-24 05:45:00,70.0,49.4,29.82,SSE,157,6.0,9.0,48,0.00,,,0.00,Weather View 32 v70,2013-03-24 09:45:00,
2013-03-24 05:50:00,70.0,49.4,29.82,SSE,157,7.0,12.0,48,0.00,,,0.00,Weather View 32 v70,2013-03-24 09:50:00,
2013-03-24 05:55:00,71.0,50.3,29.82,South,180,2.0,12.0,48,0.00,,,0.00,Weather View 32 v70,2013-03-24 09:55:00,
2013-03-24 06:00:00,71.0,50.3,29.82,SSE,157,7.0,14.0,48,0.00,,,0.00,Weather View 32 v70,2013-03-24 10:00:00,
2013-03-24 06:05:00,71.0,50.3,29.82,South,180,9.0,14.0,48,0.00,,,0.00,Weather View 32 v70,2013-03-24 10:05:00,
2013-03-24 06:15:00,71.0,50.8,29.82,SSE,157,7.0,17.0,49,0.00,,,0.00,Weather View 32 v70,2013-03-24 10:15:00,
2013-03-24 06:20:00,71.0,51.4,29.82,South,180,3.0,17.0,50,0.00,,,0.00,Weather View 32 v70,2013-03-24 10:20:00,
2013-03-24 06:25:00,71.0,51.4,29.82,SSE,157,5.0,17.0,50,0.00,,,0.00,Weather View 32 v70,2013-03-24 10:25:00,
2013-03-24 06:30:00,71.0,51.4,29.82,SSE,157,1.0,17.0,50,0.00,,,0.00,Weather View 32 v70,2013-03-24 10:30:00,
2013-03-24 06:35:00,71.0,51.9,29.81,SSE,157,6.0,17.0,51,0.00,,,0.00,Weather View 32 v70,2013-03-24 10:35:00,
2013-03-24 06:45:00,71.0,51.9,29.81,SSE,157,9.0,17.0,51,0.00,,,0.00,Weather View 32 v70,2013-03-24 10:45:00,
2013-03-24 06:50:00,71.0,51.4,29.81,WSW,247,5.0,17.0,50,0.00,,,0.00,Weather View 32 v70,2013-03-24 10:50:00,
2013-03-24 07:00:00,71.0,51.4,29.82,SSE,157,6.0,17.0,50,0.00,,,0.00,Weather View 32 v70,2013-03-24 11:00:00,
2013-03-24 07:05:00,71.0,51.4,29.82,SSE,157,10.0,17.0,50,0.00,,,0.00,Weather View 32 v70,2013-03-24 11:05:00,
2013-03-24 07:10:00,71.0,51.4,29.82,SSE,157,11.0,19.0,50,0.00,,,0.00,Weather View 32 v70,2013-03-24 11:10:00,
2013-03-24 07:15:00,71.0,51.4,29.82,SSE,157,13.0,19.0,50,0.00,,,0.00,Weather View 32 v70,2013-03-24 11:15:00,
2013-03-24 07:20:00,71.0,51.4,29.82,SSE,157,14.0,19.0,50,0.00,,,0.00,Weather View 32 v70,2013-03-24 11:20:00,
2013-03-24 07:30:00,71.0,51.4,29.82,South,180,16.0,19.0,50,0.00,,,0.00,Weather View 32 v70,2013-03-24 11:30:00,
2013-03-24 07:35:00,71.0,51.4,29.82,South,180,12.0,19.0,50,0.00,,,0.00,Weather View 32 v70,2013-03-24 11:35:00,
2013-03-24 07:40:00,71.0,50.8,29.82,South,180,6.0,19.0,49,0.00,,,0.00,Weather View 32 v70,2013-03-24 11:40:00,
2013-03-24 07:45:00,71.0,50.8,29.82,South,180,7.0,19.0,49,0.00,,,0.00,Weather View 32 v70,2013-03-24 11:45:00,
2013-03-24 07:50:00,71.0,50.3,29.82,WSW,247,11.0,20.0,48,0.00,,,0.00,Weather View 32 v70,2013-03-24 11:50:00,
2013-03-24 07:55:00,70.0,49.4,29.82,SSE,157,15.0,20.0,48,0.00,,,0.00,Weather View 32 v70,2013-03-24 11:55:00,
2013-03-24 08:00:00,70.0,49.4,29.82,South,180,12.0,20.0,48,0.00,,,0.00,Weather View 32 v70,2013-03-24 12:00:00,
2013-03-24 08:10:00,70.0,48.8,29.82,SSE,157,12.0,20.0,47,0.00,,,0.00,Weather View 32 v70,2013-03-24 12:10:00,
2013-03-24 08:15:00,71.0,49.7,29.82,South,180,6.0,24.0,47,0.00,,,0.00,Weather View 32 v70,2013-03-24 12:15:00,
2013-03-24 08:20:00,71.0,49.1,29.82,SSE,157,10.0,24.0,46,0.00,,,0.00,Weather View 32 v70,2013-03-24 12:20:00,
2013-03-24 08:25:00,71.0,49.1,29.82,SSE,157,10.0,24.0,46,0.00,,,0.00,Weather View 32 v70,2013-03-24 12:25:00,
2013-03-24 08:30:00,71.0,49.1,29.82,WSW,247,6.0,24.0,46,0.00,,,0.00,Weather View 32 v70,2013-03-24 12:30:00,
2013-03-24 08:35:00,71.0,49.1,29.82,SSE,157,9.0,24.0,46,0.00,,,0.00,Weather View 32 v70,2013-03-24 12:35:00,
2013-03-24 08:40:00,71.0,49.1,29.83,South,180,8.0,24.0,46,0.00,,,0.00,Weather View 32 v70,2013-03-24 12:40:00,
2013-03-24 08:45:00,71.0,49.7,29.82,SSE,157,6.0,24.0,47,0.00,,,0.00,Weather View 32 v70,2013-03-24 12:45:00,
2013-03-24 08:50:00,71.0,49.7,29.83,South,180,10.0,24.0,47,0.00,,,0.00,Weather View 32 v70,2013-03-24 12:50:00,
2013-03-24 08:55:00,71.0,49.7,29.84,WSW,247,8.0,24.0,47,0.00,,,0.00,Weather View 32 v70,2013-03-24 12:55:00,
2013-03-24 09:00:00,71.0,49.7,29.85,South,180,10.0,27.0,47,0.00,,,0.00,Weather View 32 v70,2013-03-24 13:00:00,
2013-03-24 09:05:00,71.0,50.3,29.85,SSE,157,6.0,27.0,48,0.00,,,0.00,Weather View 32 v70,2013-03-24 13:05:00,
2013-03-24 09:10:00,71.0,50.3,29.86,WSW,247,2.0,27.0,48,0.00,,,0.00,Weather View 32 v70,2013-03-24 13:10:00,
2013-03-24 09:20:00,71.0,50.3,29.87,SSE,157,9.0,27.0,48,0.00,,,0.00,Weather View 32 v70,2013-03-24 13:20:00,
2013-03-24 09:25:00,71.0,50.3,29.87,South,180,6.0,27.0,48,0.00,,,0.00,Weather View 32 v70,2013-03-24 13:25:00,
2013-03-24 09:30:00,71.0,50.3,29.87,South,180,6.0,27.0,48,0.00,,,0.00,Weather View 32 v70,2013-03-24 13:30:00,
2013-03-24 09:35:00,71.0,50.3,29.87,South,180,11.0,27.0,48,0.00,,,0.00,Weather View 32 v70,2013-03-24 13:35:00,
2013-03-24 09:40:00,71.0,49.7,29.87,WSW,247,10.0,27.0,47,0.00,,,0.00,Weather View 32 v70,2013-03-24 13:40:00,
2013-03-24 09:45:00,71.0,49.1,29.88,SSE,157,4.0,27.0,46,0.00,,,0.00,Weather View 32 v70,2013-03-24 13:45:00,
2013-03-24 09:50:00,70.0,48.2,29.88,WSW,247,10.0,27.0,46,0.00,,,0.00,Weather View 32 v70,2013-03-24 13:50:00,
2013-03-24 09:55:00,70.0,48.2,29.88,South,180,9.0,27.0,46,0.00,,,0.00,Weather View 32 v70,2013-03-24 13:55:00,
2013-03-24 10:00:00,70.0,47.6,29.88,SSE,157,6.0,27.0,45,0.00,,,0.00,Weather View 32 v70,2013-03-24 14:00:00,
2013-03-24 10:05:00,70.0,47.6,29.88,WSW,247,12.0,23.0,45,0.00,,,0.00,Weather View 32 v70,2013-03-24 14:05:00,
2013-03-24 10:10:00,70.0,46.4,29.88,WSW,247,12.0,21.0,43,0.00,,,0.00,Weather View 32 v70,2013-03-24 14:10:00,
2013-03-24 10:15:00,70.0,46.4,29.88,WSW,247,9.0,21.0,43,0.00,,,0.00,Weather View 32 v70,2013-03-24 14:15:00,
2013-03-24 10:20:00,70.0,46.4,29.88,South,180,9.0,21.0,43,0.00,,,0.00,Weather View 32 v70,2013-03-24 14:20:00,
2013-03-24 10:30:00,70.0,46.4,29.89,SSE,157,9.0,21.0,43,0.00,,,0.00,Weather View 32 v70,2013-03-24 14:30:00,
2013-03-24 10:35:00,70.0,46.4,29.89,WSW,247,9.0,21.0,43,0.00,,,0.00,Weather View 32 v70,2013-03-24 14:35:00,
2013-03-24 10:40:00,70.0,46.4,29.89,WSW,247,11.0,21.0,43,0.00,,,0.00,Weather View 32 v70,2013-03-24 14:40:00,
2013-03-24 10:45:00,70.0,46.4,29.89,South,180,6.0,21.0,43,0.00,,,0.00,Weather View 32 v70,2013-03-24 14:45:00,
2013-03-24 10:50:00,71.0,47.3,29.89,South,180,7.0,21.0,43,0.00,,,0.00,Weather View 32 v70,2013-03-24 14:50:00,
2013-03-24 10:55:00,71.0,47.9,29.89,WSW,247,10.0,21.0,44,0.00,,,0.00,Weather View 32 v70,2013-03-24 14:55:00,
2013-03-24 11:00:00,72.0,50.0,29.89,WSW,247,15.0,19.0,46,0.00,,,0.00,Weather View 32 v70,2013-03-24 15:00:00,
2013-03-24 11:10:00,72.0,52.8,29.90,South,180,15.0,23.0,51,0.00,,,0.00,Weather View 32 v70,2013-03-24 15:10:00,
2013-03-24 11:15:00,73.0,54.8,29.89,SSE,157,12.0,23.0,53,0.00,,,0.00,Weather View 32 v70,2013-03-24 15:15:00,
2013-03-24 11:20:00,73.0,55.8,29.89,WSW,247,6.0,23.0,55,0.00,,,0.00,Weather View 32 v70,2013-03-24 15:20:00,
2013-03-24 11:25:00,73.0,57.3,29.88,South,180,8.0,23.0,58,0.00,,,0.00,Weather View 32 v70,2013-03-24 15:25:00,
2013-03-24 11:30:00,74.0,59.2,29.88,WSW,247,12.0,23.0,60,0.00,,,0.00,Weather View 32 v70,2013-03-24 15:30:00,
2013-03-24 11:35:00,74.0,59.7,29.89,WSW,247,11.0,23.0,61,0.00,,,0.00,Weather View 32 v70,2013-03-24 15:35:00,
2013-03-24 11:45:00,74.0,60.6,29.90,South,180,11.0,23.0,63,0.00,,,0.00,Weather View 32 v70,2013-03-24 15:45:00,
2013-03-24 11:50:00,75.0,61.5,29.90,South,180,5.0,23.0,63,0.00,,,0.00,Weather View 32 v70,2013-03-24 15:50:00,
2013-03-24 11:55:00,75.0,62.4,29.90,WSW,247,7.0,23.0,65,0.00,,,0.00,Weather View 32 v70,2013-03-24 15:55:00,
2013-03-24 12:00:00,76.0,64.6,29.90,South,180,13.0,23.0,68,0.00,,,0.00,Weather View 32 v70,2013-03-24 16:00:00,
2013-03-24 12:05:00,76.0,65.5,29.90,SSE,157,7.0,23.0,70,0.00,,,0.00,Weather View 32 v70,2013-03-24 16:05:00,
2013-03-24 12:10:00,76.0,65.9,29.90,South,180,16.0,23.0,71,0.00,,,0.00,Weather View 32 v70,2013-03-24 16:10:00,
2013-03-24 12:15:00,76.0,65.9,29.91,SSE,157,7.0,27.0,71,0.00,,,0.00,Weather View 32 v70,2013-03-24 16:15:00,
2013-03-24 12:20:00,76.0,66.3,29.90,WSW,247,14.0,29.0,72,0.00,,,0.00,Weather View 32 v70,2013-03-24 16:20:00,
2013-03-24 12:30:00,75.0,64.5,29.90,WSW,247,9.0,29.0,70,0.00,,,0.00,Weather View 32 v70,2013-03-24 16:30:00,
2013-03-24 12:35:00,76.0,65.9,29.89,South,180,18.0,29.0,71,0.00,,,0.00,Weather View 32 v70,2013-03-24 16:35:00,
2013-03-24 12:40:00,75.0,64.5,29.89,WSW,247,19.0,29.0,70,0.00,,,0.00,Weather View 32 v70,2013-03-24 16:40:00,
2013-03-24 12:45:00,75.0,64.1,29.89,WSW,247,12.0,29.0,69,0.00,,,0.00,Weather View 32 v70,2013-03-24 16:45:00,
2013-03-24 12:50:00,76.0,65.9,29.88,WSW,247,12.0,29.0,71,0.00,,,0.00,Weather View 32 v70,2013-03-24 16:50:00,
2013-03-24 12:55:00,76.0,65.9,29.88,South,180,6.0,29.0,71,0.00,,,0.00,Weather View 32 v70,2013-03-24 16:55:00,
2013-03-24 13:05:00,76.0,66.3,29.87,WSW,247,10.0,29.0,72,0.00,,,0.00,Weather View 32 v70,2013-03-24 17:05:00,
2013-03-24 13:10:00,76.0,66.3,29.87,SSE,157,7.0,29.0,72,0.00,,,0.00,Weather View 32 v70,2013-03-24 17:10:00,
2013-03-24 13:15:00,76.0,66.3,29.87,South,180,9.0,29.0,72,0.00,,,0.00,Weather View 32 v70,2013-03-24 17:15:00,
2013-03-24 13:20:00,76.0,66.3,29.86,South,180,5.0,29.0,72,0.00,,,0.00,Weather View 32 v70,2013-03-24 17:20:00,
2013-03-24 13:25:00,76.0,66.3,29.86,South,180,20.0,29.0,72,0.00,,,0.00,Weather View 32 v70,2013-03-24 17:25:00,
2013-03-24 13:30:00,76.0,66.3,29.85,South,180,9.0,28.0,72,0.00,,,0.00,Weather View 32 v70,2013-03-24 17:30:00,
2013-03-24 13:35:00,76.0,66.3,29.84,WSW,247,6.0,29.0,72,0.00,,,0.00,Weather View 32 v70,2013-03-24 17:35:00,
2013-03-24 13:40:00,75.0,64.9,29.84,WSW,247,26.0,29.0,71,0.00,,,0.00,Weather View 32 v70,2013-03-24 17:40:00,
2013-03-24 13:45:00,75.0,64.5,29.84,WSW,247,28.0,29.0,70,0.00,,,0.00,Weather View 32 v70,2013-03-24 17:45:00,
2013-03-24 13:50:00,75.0,64.1,29.84,South,180,27.0,29.0,69,0.00,,,0.00,Weather View 32 v70,2013-03-24 17:50:00,
2013-03-24 13:55:00,74.0,62.7,29.84,WSW,247,5.0,29.0,68,0.00,,,0.00,Weather View 32 v70,2013-03-24 17:55:00,
2013-03-24 14:00:00,74.0,62.3,29.84,WSW,247,31.0,31.0,67,0.00,,,0.00,Weather View 32 v70,2013-03-24 18:00:00,
2013-03-24 14:05:00,75.0,62.8,29.83,South,180,10.0,31.0,66,0.00,,,0.00,Weather View 32 v70,2013-03-24 18:05:00,
2013-03-24 14:10:00,74.0,61.9,29.83,South,180,12.0,31.0,66,0.00,,,0.00,Weather View 32 v70,2013-03-24 18:10:00,
2013-03-24 14:20:00,74.0,61.9,29.83,SSE,157,19.0,31.0,66,0.00,,,0.00,Weather View 32 v70,2013-03-24 18:20:00,
2013-03-24 14:25:00,74.0,61.9,29.82,East,90,20.0,31.0,66,0.00,,,0.00,Weather View 32 v70,2013-03-24 18:25:00,
2013-03-24 14:30:00,74.0,61.4,29.82,WSW,247,8.0,31.0,65,0.00,,,0.00,Weather View 32 v70,2013-03-24 18:30:00,
2013-03-24 14:40:00,73.0,59.6,29.82,WSW,247,9.0,31.0,63,0.00,,,0.00,Weather View 32 v70,2013-03-24 18:40:00,
2013-03-24 14:50:00,73.0,59.2,29.82,WSW,247,13.0,31.0,62,0.00,,,0.00,Weather View 32 v70,2013-03-24 18:50:00,
2013-03-24 14:55:00,73.0,58.7,29.82,WSW,247,6.0,31.0,61,0.00,,,0.00,Weather View 32 v70,2013-03-24 18:55:00,
2013-03-24 15:00:00,73.0,58.7,29.81,WSW,247,25.0,31.0,61,0.00,,,0.00,Weather View 32 v70,2013-03-24 19:00:00,
2013-03-24 15:05:00,73.0,57.8,29.82,WSW,247,15.0,31.0,59,0.00,,,0.00,Weather View 32 v70,2013-03-24 19:05:00,
2013-03-24 15:10:00,73.0,57.3,29.81,WSW,247,19.0,31.0,58,0.00,,,0.00,Weather View 32 v70,2013-03-24 19:10:00,
2013-03-24 15:15:00,73.0,58.2,29.81,WSW,247,15.0,31.0,60,0.00,,,0.00,Weather View 32 v70,2013-03-24 19:15:00,
2013-03-24 15:20:00,74.0,59.2,29.82,WSW,247,17.0,32.0,60,0.00,,,0.00,Weather View 32 v70,2013-03-24 19:20:00,
2013-03-24 15:25:00,74.0,60.1,29.81,WSW,247,17.0,32.0,62,0.00,,,0.00,Weather View 32 v70,2013-03-24 19:25:00,
2013-03-24 15:30:00,74.0,60.6,29.81,SSE,157,10.0,32.0,63,0.00,,,0.00,Weather View 32 v70,2013-03-24 19:30:00,
2013-03-24 15:35:00,74.0,60.6,29.81,WSW,247,9.0,32.0,63,0.00,,,0.00,Weather View 32 v70,2013-03-24 19:35:00,
2013-03-24 15:40:00,74.0,61.0,29.81,WSW,247,18.0,32.0,64,0.00,,,0.00,Weather View 32 v70,2013-03-24 19:40:00,
2013-03-24 15:50:00,75.0,62.4,29.81,WSW,247,15.0,32.0,65,0.00,,,0.00,Weather View 32 v70,2013-03-24 19:50:00,
2013-03-24 15:55:00,75.0,62.8,29.81,WSW,247,28.0,32.0,66,0.00,,,0.00,Weather View 32 v70,2013-03-24 19:55:00,
2013-03-24 16:00:00,75.0,62.8,29.81,WSW,247,14.0,32.0,66,0.00,,,0.00,Weather View 32 v70,2013-03-24 20:00:00,
2013-03-24 16:05:00,75.0,63.7,29.81,WSW,247,9.0,32.0,68,0.00,,,0.00,Weather View 32 v70,2013-03-24 20:05:00,
2013-03-24 16:10:00,75.0,63.7,29.80,WSW,247,22.0,32.0,68,0.00,,,0.00,Weather View 32 v70,2013-03-24 20:10:00,
2013-03-24 16:15:00,75.0,63.3,29.80,WSW,247,28.0,32.0,67,0.00,,,0.00,Weather View 32 v70,2013-03-24 20:15:00,
2013-03-24 16:20:00,75.0,63.3,29.81,South,180,6.0,28.0,67,0.00,,,0.00,Weather View 32 v70,2013-03-24 20:20:00,
2013-03-24 16:25:00,75.0,63.7,29.80,SSE,157,7.0,28.0,68,0.00,,,0.00,Weather View 32 v70,2013-03-24 20:25:00,
2013-03-24 16:30:00,75.0,63.7,29.80,WSW,247,16.0,28.0,68,0.00,,,0.00,Weather View 32 v70,2013-03-24 20:30:00,
2013-03-24 16:35:00,75.0,62.8,29.80,NNW,337,9.0,28.0,66,0.00,,,0.00,Weather View 32 v70,2013-03-24 20:35:00,
2013-03-24 16:40:00,74.0,61.9,29.79,WSW,247,16.0,28.0,66,0.00,,,0.00,Weather View 32 v70,2013-03-24 20:40:00,
2013-03-24 16:45:00,74.0,61.9,29.80,SSE,157,4.0,28.0,66,0.00,,,0.00,Weather View 32 v70,2013-03-24 20:45:00,
2013-03-24 16:50:00,74.0,61.4,29.80,WSW,247,12.0,28.0,65,0.00,,,0.00,Weather View 32 v70,2013-03-24 20:50:00,
2013-03-24 17:00:00,74.0,61.4,29.80,WSW,247,11.0,28.0,65,0.00,,,0.00,Weather View 32 v70,2013-03-24 21:00:00,
2013-03-24 17:05:00,74.0,61.0,29.80,WSW,247,19.0,29.0,64,0.00,,,0.00,Weather View 32 v70,2013-03-24 21:05:00,
2013-03-24 17:10:00,75.0,62.0,29.79,WSW,247,10.0,29.0,64,0.00,,,0.00,Weather View 32 v70,2013-03-24 21:10:00,
2013-03-24 17:15:00,74.0,60.6,29.80,WSW,247,18.0,29.0,63,0.00,,,0.00,Weather View 32 v70,2013-03-24 21:15:00,
2013-03-24 17:20:00,74.0,60.6,29.79,WSW,247,11.0,29.0,63,0.00,,,0.00,Weather View 32 v70,2013-03-24 21:20:00,
2013-03-24 17:25:00,74.0,60.6,29.79,WSW,247,7.0,29.0,63,0.00,,,0.00,Weather View 32 v70,2013-03-24 21:25:00,
2013-03-24 17:30:00,73.0,60.5,29.80,NNW,337,8.0,29.0,65,0.00,,,0.00,Weather View 32 v70,2013-03-24 21:30:00,
2013-03-24 17:35:00,72.0,57.8,29.80,WSW,247,8.0,29.0,61,0.00,,,0.00,Weather View 32 v70,2013-03-24 21:35:00,
2013-03-24 17:40:00,72.0,56.4,29.80,WSW,247,12.0,29.0,58,0.00,,,0.00,Weather View 32 v70,2013-03-24 21:40:00,
2013-03-24 17:45:00,72.0,55.4,29.79,WSW,247,14.0,29.0,56,0.00,,,0.00,Weather View 32 v70,2013-03-24 21:45:00,
2013-03-24 17:50:00,72.0,55.4,29.79,WSW,247,13.0,29.0,56,0.00,,,0.00,Weather View 32 v70,2013-03-24 21:50:00,
2013-03-24 17:55:00,72.0,55.4,29.80,WSW,247,7.0,29.0,56,0.00,,,0.00,Weather View 32 v70,2013-03-24 21:55:00,
2013-03-24 18:00:00,72.0,55.4,29.80,WSW,247,4.0,29.0,56,0.00,,,0.00,Weather View 32 v70,2013-03-24 22:00:00,
2013-03-24 18:05:00,72.0,54.9,29.80,WSW,247,13.0,29.0,55,0.00,,,0.00,Weather View 32 v70,2013-03-24 22:05:00,
2013-03-24 18:10:00,72.0,54.9,29.80,WSW,247,15.0,29.0,55,0.00,,,0.00,Weather View 32 v70,2013-03-24 22:10:00,
2013-03-24 18:20:00,71.0,53.0,29.80,WSW,247,12.0,25.0,53,0.00,,,0.00,Weather View 32 v70,2013-03-24 22:20:00,
2013-03-24 18:25:00,71.0,52.4,29.80,WSW,247,12.0,25.0,52,0.00,,,0.00,Weather View 32 v70,2013-03-24 22:25:00,
2013-03-24 18:35:00,71.0,51.9,29.80,WSW,247,10.0,20.0,51,0.00,,,0.00,Weather View 32 v70,2013-03-24 22:35:00,
2013-03-24 18:40:00,71.0,52.4,29.80,WSW,247,13.0,20.0,52,0.00,,,0.00,Weather View 32 v70,2013-03-24 22:40:00,
2013-03-24 18:45:00,71.0,52.4,29.80,WSW,247,9.0,20.0,52,0.00,,,0.00,Weather View 32 v70,2013-03-24 22:45:00,
2013-03-24 18:50:00,71.0,52.4,29.80,WSW,247,9.0,20.0,52,0.00,,,0.00,Weather View 32 v70,2013-03-24 22:50:00,
2013-03-24 18:55:00,72.0,53.9,29.81,WSW,247,10.0,19.0,53,0.00,,,0.00,Weather View 32 v70,2013-03-24 22:55:00,
2013-03-24 19:00:00,72.0,53.4,29.80,WSW,247,10.0,19.0,52,0.00,,,0.00,Weather View 32 v70,2013-03-24 23:00:00,
2013-03-24 19:05:00,72.0,53.9,29.80,WSW,247,12.0,19.0,53,0.00,,,0.00,Weather View 32 v70,2013-03-24 23:05:00,
2013-03-24 19:10:00,72.0,53.9,29.80,WSW,247,6.0,19.0,53,0.00,,,0.00,Weather View 32 v70,2013-03-24 23:10:00,
2013-03-24 19:15:00,72.0,53.9,29.81,WSW,247,5.0,19.0,53,0.00,,,0.00,Weather View 32 v70,2013-03-24 23:15:00,
2013-03-24 19:20:00,72.0,53.9,29.81,WSW,247,7.0,19.0,53,0.00,,,0.00,Weather View 32 v70,2013-03-24 23:20:00,
2013-03-24 19:25:00,72.0,53.4,29.81,WSW,247,11.0,19.0,52,0.00,,,0.00,Weather View 32 v70,2013-03-24 23:25:00,
2013-03-24 19:30:00,71.0,52.4,29.82,WSW,247,7.0,18.0,52,0.00,,,0.00,Weather View 32 v70,2013-03-24 23:30:00,
2013-03-24 19:35:00,71.0,51.9,29.82,WSW,247,2.0,17.0,51,0.00,,,0.00,Weather View 32 v70,2013-03-24 23:35:00,
2013-03-24 19:40:00,71.0,51.9,29.82,NNW,337,7.0,17.0,51,0.00,,,0.00,Weather View 32 v70,2013-03-24 23:40:00,
2013-03-24 19:45:00,71.0,51.9,29.82,NNW,337,11.0,17.0,51,0.00,,,0.00,Weather View 32 v70,2013-03-24 23:45:00,
2013-03-24 19:55:00,71.0,51.4,29.82,WSW,247,5.0,16.0,50,0.00,,,0.00,Weather View 32 v70,2013-03-24 23:55:00,
2013-03-24 20:00:00,71.0,51.4,29.82,NNW,337,5.0,16.0,50,0.00,,,0.00,Weather View 32 v70,2013-03-25 00:00:00,
2013-03-24 20:10:00,71.0,50.8,29.83,WSW,247,2.0,16.0,49,0.00,,,0.00,Weather View 32 v70,2013-03-25 00:10:00,
2013-03-24 20:15:00,70.0,49.9,29.83,WSW,247,6.0,15.0,49,0.00,,,0.00,Weather View 32 v70,2013-03-25 00:15:00,
2013-03-24 20:20:00,70.0,49.4,29.84,WSW,247,2.0,15.0,48,0.00,,,0.00,Weather View 32 v70,2013-03-25 00:20:00,
2013-03-24 20:25:00,70.0,49.4,29.84,NNW,337,6.0,14.0,48,0.00,,,0.00,Weather View 32 v70,2013-03-25 00:25:00,
2013-03-24 20:30:00,70.0,49.4,29.84,NNW,337,4.0,15.0,48,0.00,,,0.00,Weather View 32 v70,2013-03-25 00:30:00,
2013-03-24 20:35:00,70.0,49.4,29.84,WSW,247,6.0,15.0,48,0.00,,,0.00,Weather View 32 v70,2013-03-25 00:35:00,
2013-03-24 20:40:00,70.0,49.9,29.84,NNW,337,9.0,15.0,49,0.00,,,0.00,Weather View 32 v70,2013-03-25 00:40:00,
2013-03-24 20:45:00,70.0,50.5,29.84,NNW,337,8.0,15.0,50,0.00,,,0.00,Weather View 32 v70,2013-03-25 00:45:00,
2013-03-24 20:50:00,70.0,50.5,29.84,NNW,337,6.0,15.0,50,0.00,,,0.00,Weather View 32 v70,2013-03-25 00:50:00,
2013-03-24 20:55:00,70.0,50.5,29.84,WSW,247,7.0,15.0,50,0.00,,,0.00,Weather View 32 v70,2013-03-25 00:55:00,
2013-03-24 21:00:00,69.0,49.5,29.84,WSW,247,4.0,15.0,50,0.00,,,0.00,Weather View 32 v70,2013-03-25 01:00:00,
2013-03-24 21:05:00,69.0,49.5,29.84,NNW,337,4.0,15.0,50,0.00,,,0.00,Weather View 32 v70,2013-03-25 01:05:00,
2013-03-24 21:10:00,69.0,49.5,29.84,NNW,337,6.0,15.0,50,0.00,,,0.00,Weather View 32 v70,2013-03-25 01:10:00,
2013-03-24 21:15:00,69.0,50.1,29.84,NNW,337,7.0,15.0,51,0.00,,,0.00,Weather View 32 v70,2013-03-25 01:15:00,
2013-03-24 21:20:00,69.0,51.6,29.85,NNW,337,8.0,15.0,54,0.00,,,0.00,Weather View 32 v70,2013-03-25 01:20:00,
2013-03-24 21:30:00,69.0,52.1,29.86,NNW,337,6.0,13.0,55,0.00,,,0.00,Weather View 32 v70,2013-03-25 01:30:00,
2013-03-24 21:35:00,69.0,52.6,29.86,NNW,337,9.0,13.0,56,0.00,,,0.00,Weather View 32 v70,2013-03-25 01:35:00,
2013-03-24 21:40:00,69.0,53.1,29.86,NNW,337,10.0,13.0,57,0.00,,,0.00,Weather View 32 v70,2013-03-25 01:40:00,
2013-03-24 21:45:00,69.0,53.1,29.86,NNW,337,4.0,13.0,57,0.00,,,0.00,Weather View 32 v70,2013-03-25 01:45:00,
2013-03-24 21:50:00,69.0,53.6,29.86,NNW,337,9.0,13.0,58,0.00,,,0.00,Weather View 32 v70,2013-03-25 01:50:00,
2013-03-24 21:55:00,69.0,53.6,29.86,NNW,337,11.0,13.0,58,0.00,,,0.00,Weather View 32 v70,2013-03-25 01:55:00,
2013-03-24 22:00:00,69.0,54.0,29.86,NNW,337,7.0,13.0,59,0.00,,,0.00,Weather View 32 v70,2013-03-25 02:00:00,
2013-03-24 22:05:00,69.0,54.5,29.86,NNW,337,8.0,17.0,60,0.00,,,0.00,Weather View 32 v70,2013-03-25 02:05:00,
2013-03-24 22:10:00,69.0,55.0,29.86,NNW,337,11.0,17.0,61,0.00,,,0.00,Weather View 32 v70,2013-03-25 02:10:00,
2013-03-24 22:15:00,69.0,55.0,29.87,NNW,337,12.0,17.0,61,0.00,,,0.00,Weather View 32 v70,2013-03-25 02:15:00,
2013-03-24 22:20:00,69.0,55.8,29.87,NNW,337,13.0,17.0,63,0.00,,,0.00,Weather View 32 v70,2013-03-25 02:20:00,
2013-03-24 22:25:00,69.0,55.8,29.87,NNW,337,7.0,17.0,63,0.00,,,0.00,Weather View 32 v70,2013-03-25 02:25:00,
2013-03-24 22:30:00,69.0,55.8,29.87,NNW,337,7.0,17.0,63,0.00,,,0.00,Weather View 32 v70,2013-03-25 02:30:00,
2013-03-24 22:35:00,69.0,55.8,29.87,NNW,337,1.0,17.0,63,0.00,,,0.00,Weather View 32 v70,2013-03-25 02:35:00,
2013-03-24 22:40:00,69.0,55.4,29.88,NNW,337,7.0,17.0,62,0.00,,,0.00,Weather View 32 v70,2013-03-25 02:40:00,
2013-03-24 22:50:00,69.0,55.0,29.88,WSW,247,5.0,17.0,61,0.00,,,0.00,Weather View 32 v70,2013-03-25 02:50:00,
2013-03-24 22:55:00,69.0,55.0,29.88,WSW,247,1.0,17.0,61,0.00,,,0.00,Weather View 32 v70,2013-03-25 02:55:00,
2013-03-24 23:00:00,69.0,55.4,29.87,WSW,247,2.0,17.0,62,0.00,,,0.00,Weather View 32 v70,2013-03-25 03:00:00,
2013-03-24 23:05:00,68.0,54.9,29.87,WSW,247,5.0,15.0,63,0.00,,,0.00,Weather View 32 v70,2013-03-25 03:05:00,
2013-03-24 23:10:00,68.0,54.9,29.87,WSW,247,5.0,15.0,63,0.00,,,0.00,Weather View 32 v70,2013-03-25 03:10:00,
2013-03-24 23:15:00,68.0,54.9,29.87,WSW,247,1.0,15.0,63,0.00,,,0.00,Weather View 32 v70,2013-03-25 03:15:00,
2013-03-24 23:20:00,68.0,54.9,29.87,WSW,247,5.0,15.0,63,0.00,,,0.00,Weather View 32 v70,2013-03-25 03:20:00,
2013-03-24 23:25:00,68.0,54.9,29.87,NNW,337,0.0,15.0,63,0.00,,,0.00,Weather View 32 v70,2013-03-25 03:25:00,
2013-03-24 23:30:00,68.0,54.5,29.87,WSW,247,0.0,12.0,62,0.00,,,0.00,Weather View 32 v70,2013-03-25 03:30:00,
2013-03-24 23:35:00,68.0,54.5,29.87,WSW,247,6.0,11.0,62,0.00,,,0.00,Weather View 32 v70,2013-03-25 03:35:00,
2013-03-24 23:40:00,68.0,54.0,29.87,WSW,247,10.0,10.0,61,0.00,,,0.00,Weather View 32 v70,2013-03-25 03:40:00,
2013-03-24 23:45:00,68.0,54.0,29.87,WSW,247,2.0,10.0,61,0.00,,,0.00,Weather View 32 v70,2013-03-25 03:45:00,
2013-03-24 23:55:00,67.0,52.2,29.86,WSW,247,6.0,11.0,59,0.00,,,0.00,Weather View 32 v70,2013-03-25 03:55:00,